Date,TemperatureHighF,TemperatureAvgF,TemperatureLowF,DewpointHighF,DewpointAvgF,DewpointLowF,HumidityHigh,HumidityAvg,HumidityLow,PressureMaxIn,PressureMinIn,WindSpeedMaxMPH,WindSpeedAvgMPH,GustSpeedMaxMPH,PrecipitationSumIn
2014-1-1,33.8,28.0,22.3,20.3,15.6,12.5,68,60,43,30.36,30.19,12,2,14,0.00
2014-1-2,29.4,24.5,12.5,24.4,20.7,9.6,92,85,68,30.27,29.65,11,4,16,0.00
2014-1-3,22.6,12.4,5.1,13.1,5.9,-1.4,90,75,59,30.40,29.55,19,5,24,0.00
2014-1-4,32.9,18.8,1.2,27.8,12.1,-3.8,87,75,60,30.51,30.27,11,2,18,0.01
2014-1-5,47.7,30.3,17.8,47.2,28.1,15.1,98,91,78,30.31,29.81,5,1,7,0.04
2014-1-6,54.3,44.8,32.8,54.0,42.9,22.3,99,93,65,29.81,29.32,15,4,27,0.15
2014-1-7,33.1,15.8,10.1,25.5,0.7,-6.6,80,51,38,30.28,29.53,17,6,25,0.00
2014-1-8,24.3,16.6,9.0,10.6,4.3,-2.9,66,58,49,30.49,30.28,11,3,17,0.00
2014-1-9,34.3,22.5,16.2,15.9,12.2,8.4,85,65,44,30.61,30.42,11,1,13,0.00
2014-1-10,38.0,30.3,17.8,37.2,28.1,13.1,97,92,80,30.57,30.21,3,0,4,0.16
2014-1-11,54.9,48.7,37.9,54.6,48.1,37.1,99,98,97,30.21,29.31,16,3,26,0.70
2014-1-12,49.9,42.9,32.0,49.4,37.3,28.0,99,82,59,30.00,29.33,16,3,20,0.05
2014-1-13,49.3,40.3,30.2,44.3,36.3,27.7,95,86,66,30.13,29.90,7,1,12,0.00
2014-1-14,47.8,46.2,43.0,47.0,44.9,41.9,97,95,89,29.90,29.59,9,1,12,0.97
2014-1-15,47.2,39.9,34.8,43.4,38.2,34.0,98,94,83,29.99,29.76,3,0,4,0.00
2014-1-16,43.2,39.3,37.3,42.1,38.3,36.3,97,96,93,29.89,29.80,2,0,4,0.00
2014-1-17,43.3,37.1,31.2,37.3,32.9,27.2,97,86,55,29.97,29.88,8,1,10,0.00
2014-1-18,41.9,37.6,33.5,40.8,35.6,28.3,96,92,81,29.89,29.56,11,1,13,0.36
2014-1-19,37.2,33.2,29.6,31.0,26.5,23.4,88,77,68,29.75,29.60,29,6,30,0.00
2014-1-20,44.2,39.5,31.5,33.2,29.8,19.9,78,68,59,29.85,29.51,17,5,26,0.00
2014-1-21,31.4,21.2,14.6,19.9,13.2,7.6,88,72,51,30.01,29.75,11,2,18,0.00
2014-1-22,23.0,14.2,7.4,11.4,4.9,-1.5,86,67,44,29.91,29.66,13,3,21,0.00
2014-1-23,25.7,13.0,3.4,7.3,2.0,-2.4,79,62,38,30.21,29.91,13,2,19,0.00
2014-1-24,24.8,15.1,6.0,10.4,3.8,0.3,79,62,39,30.30,30.08,14,3,20,0.00
2014-1-25,38.9,30.9,20.6,29.5,23.4,8.4,92,74,57,30.08,29.38,19,7,25,0.00
2014-1-26,28.9,23.3,18.0,23.5,12.9,2.2,82,65,37,29.87,29.40,17,4,24,0.00
2014-1-27,44.8,35.2,22.9,39.3,25.4,-0.3,95,70,34,30.00,29.57,15,3,22,0.08
2014-1-28,24.3,20.3,15.5,3.8,0.2,-3.6,48,41,31,30.32,30.01,10,2,16,0.00
2014-1-29,28.0,21.0,15.9,14.3,8.7,1.8,86,60,41,30.25,30.02,15,2,24,0.00
2014-1-30,30.2,22.0,11.9,20.8,10.8,2.7,84,63,36,30.44,30.17,6,2,11,0.00
2014-1-31,38.4,31.8,21.0,27.4,23.1,16.8,93,71,50,30.22,30.04,16,2,18,0.01